Погода в Шевченкове

Украина / Одесская область     45°33′18″N   29°19′58″E
темп.,
°C
ветер,
м/с
пор.,
м/с
влажн.,
%
обл.,
%
осадки,
мм/ч
давл.,
гПа
погр.,
м
31 июля, сб
сб3100:00+22ююз33750 0.0 101144
03:00+22ю11772 0.1 101111
06:00+22ю227864 0.0 101017
09:00+28вюв335352 0.3 1011426
12:00+34юв33320 0.0 10102245
15:00+29вюв354696 0.5 1010379
18:00+33ю55330 0.1 10091703
21:00+25ююв485694 0.1 1010189
1 августа, вс
вс100:00+22ююз35803 0.2 101296
03:00+22ю348449 0.2 101169
06:00+22ююз3586100 0.0 101181
09:00+29ююз46480 0.0 1011717
12:00+34юз65310 0.0 10111736
15:00+37ююз55280 0.0 10102600
18:00+35юз75330 0.0 10091417
21:00+26ю510600 0.0 1010286
2 августа, пн
пн200:00+23ю411810 0.0 1010245
03:00+22ю36850 0.0 1010121
06:00+22ю39885 0.0 1010202
09:00+31ю79432 0.0 1010654
12:00+36ю910292 0.0 10091253
15:00+37ю910260 0.0 10071405
18:00+35ю88330 0.0 1007762
21:00+27юв44550 0.0 100950
3 августа, вт
вт300:00+23ю35780 0.0 100986
03:00+23ссз33776 0.0 100930
06:00+24с5116792 0.1 1011374
09:00+27с795912 0.1 1012630
12:00+31с76405 0.0 10131279
15:00+33с66285 0.0 10132211
18:00+32с443091 0.0 10132211
21:00+26ссв34445 0.0 101459
4 августа, ср
ср400:00+23св225413 0.0 101522
03:00+21ссв2258100 0.0 101532
06:00+20зсз3378100 1.6 101749
09:00+23ююв45645 1.6 1017379
12:00+30св213720 0.0 10161500
15:00+34св24265 0.0 10152939
18:00+31юв653311 0.0 10151264
21:00+24юв475943 0.0 1016128